Location: Invercargill
(46.4000°S, 168.3500°E)
Time: 17:59:28
(UTC+12:00)

Cosmos 2278 Rocket - Pass Details

Date: 14 May 2021
Orbit: 841 x 845 km, 71.0° (Epoch: 14 June)

Event Time Altitude Azimuth Distance (km) Brightness Sun altitude
Rises 19:12:50 0° 209° (SSW) 3,443 5.7 -18.5°
Reaches altitude 10° 19:15:20 10° 212° (SSW) 2,501 4.9 -18.9°
Maximum altitude 19:21:00 64° 292° (WNW) 945 2.6 -19.9°
Drops below altitude 10° 19:26:36 10° 12° (NNE) 2,469 4.6 -20.8°
Sets 19:29:03 0° 14° (NNE) 3,396 5.3 -21.3°
